Location: Dąbrówka
(52.2799°N, 15.8070°E)
Time: 21:46:51
(UTC+01:00)

ISS - Pass Details

Date: 25 January 2019
Orbit: 403 x 411 km, 51.6° (Epoch: 16 February)

Event Time Altitude Azimuth Distance (km) Brightness Sun altitude
Rises 18:28:53 0° 225° (SW) 2,328 0.9 -17.8°
Reaches altitude 10° 18:31:06 10° 214° (SW) 1,472 -0.4 -18.2°
Enters shadow 18:33:51 29° 159° (SSE) 777 -2.6 -18.6°
